| time (UTC) | temp F | wind direction | speed MPH | gust MPH | rain 1hr in | rain 24hr in | rain mn in | humidity % | barometer mb |
| 20260903001117 | 73 | 136 | 0.0 | 0.0 | 0.00 | 0.32 | 0.32 | 92 | 1018.5 |
| 20260903000645 | 73 | 136 | 0.0 | 0.0 | 0.00 | 0.32 | 0.32 | 92 | 1018.3 |
| 20260903000113 | 73 | 136 | 0.0 | 0.0 | 0.00 | 0.32 | 0.32 | 92 | 1018.3 |
| 20260902235642 | 73 | 136 | 0.0 | 0.0 | 0.00 | 0.32 | 0.32 | 91 | 1018.5 |
| 20260902235130 | 73 | 136 | 0.0 | 0.0 | 0.00 | 0.32 | 0.32 | 92 | 1018.5 |
| 20260902234618 | 73 | 136 | 0.0 | 0.0 | 0.00 | 0.32 | 0.32 | 92 | 1018.5 |
| 20260902234128 | 73 | 136 | 0.0 | 0.0 | 0.00 | 0.32 | 0.32 | 91 | 1018.5 |
| 20260902233636 | 73 | 136 | 0.0 | 0.0 | 0.00 | 0.32 | 0.32 | 91 | 1018.5 |
| 20260902233124 | 73 | 165 | 0.0 | 0.0 | 0.00 | 0.32 | 0.32 | 91 | 1018.6 |
| 20260902232633 | 73 | 165 | 0.0 | 0.0 | 0.00 | 0.32 | 0.32 | 91 | 1018.6 |
| 20260902232121 | 73 | 165 | 0.0 | 0.0 | 0.00 | 0.32 | 0.32 | 90 | 1018.5 |
| 20260902231627 | 73 | 165 | 0.0 | 0.0 | 0.00 | 0.32 | 0.32 | 90 | 1018.4 |
| 20260902231117 | 73 | 136 | 0.0 | 0.0 | 0.00 | 0.32 | 0.32 | 89 | 1018.4 |
| 20260902230627 | 74 | 136 | 0.0 | 0.0 | 0.00 | 0.32 | 0.32 | 88 | 1018.5 |
| 20260902230116 | 74 | 136 | 0.0 | 0.0 | 0.00 | 0.32 | 0.32 | 87 | 1018.6 |
| 20260902225625 | 74 | 136 | 0.0 | 3.0 | 0.00 | 0.32 | 0.32 | 86 | 1018.6 |
| 20260902225135 | 75 | 251 | 0.0 | 3.0 | 0.00 | 0.32 | 0.32 | 84 | 1018.7 |
| 20260902224623 | 76 | 165 | 1.0 | 3.0 | 0.00 | 0.32 | 0.32 | 83 | 1018.7 |
| 20260902224132 | 76 | 299 | 0.0 | 3.0 | 0.00 | 0.32 | 0.32 | 84 | 1018.6 |
| 20260902223622 | 76 | 295 | 1.0 | 3.0 | 0.00 | 0.32 | 0.32 | 84 | 1018.4 |
| 20260902223129 | 76 | 165 | 0.0 | 3.0 | 0.00 | 0.32 | 0.32 | 84 | 1018.4 |
| 20260902222618 | 76 | 165 | 0.0 | 3.0 | 0.00 | 0.32 | 0.32 | 84 | 1018.4 |
| 20260902222127 | 76 | 165 | 1.0 | 3.0 | 0.00 | 0.32 | 0.32 | 84 | 1018.4 |
| 20260902221616 | 76 | 165 | 0.0 | 3.0 | 0.00 | 0.32 | 0.32 | 84 | 1018.5 |
| 20260902221124 | 76 | 165 | 0.0 | 4.0 | 0.00 | 0.32 | 0.32 | 84 | 1018.5 |
| 20260902220632 | 77 | 165 | 0.0 | 4.0 | 0.00 | 0.32 | 0.32 | 84 | 1018.6 |
| 20260902220122 | 77 | 165 | 0.0 | 3.0 | 0.00 | 0.32 | 0.32 | 84 | 1018.6 |
| 20260902215631 | 77 | 165 | 0.0 | 0.0 | 0.00 | 0.32 | 0.32 | 85 | 1018.7 |
| 20260902215120 | 77 | 165 | 0.0 | 0.0 | 0.00 | 0.32 | 0.32 | 85 | 1018.7 |
| 20260902214628 | 77 | 165 | 0.0 | 0.0 | 0.00 | 0.32 | 0.32 | 85 | 1018.9 |
| 20260902214153 | 76 | 282 | 0.0 | 0.0 | 0.00 | 0.32 | 0.32 | 86 | 1019.1 |
| 20260902213621 | 76 | 294 | 0.0 | 0.0 | 0.00 | 0.32 | 0.32 | 87 | 1019.1 |
| 20260902213130 | 75 | 165 | 0.0 | 0.0 | 0.00 | 0.32 | 0.32 | 86 | 1019.3 |
| 20260902212617 | 76 | 224 | 0.0 | 2.0 | 0.00 | 0.32 | 0.32 | 87 | 1019.2 |
| 20260902212125 | 75 | 165 | 0.0 | 2.0 | 0.00 | 0.32 | 0.32 | 88 | 1019.1 |
| 20260902211615 | 75 | 248 | 0.0 | 1.0 | 0.00 | 0.32 | 0.32 | 89 | 1019.2 |
| 20260902211143 | 74 | 303 | 0.0 | 0.0 | 0.00 | 0.32 | 0.32 | 90 | 1019.3 |
| 20260902210631 | 74 | 323 | 0.0 | 0.0 | 0.00 | 0.32 | 0.32 | 90 | 1019.2 |
| 20260902210120 | 74 | 323 | 0.0 | 0.0 | 0.00 | 0.32 | 0.32 | 90 | 1019.1 |
| 20260902205630 | 74 | 323 | 0.0 | 2.0 | 0.00 | 0.32 | 0.32 | 90 | 1019.1 |
| 20260902205138 | 74 | 323 | 0.0 | 2.0 | 0.00 | 0.32 | 0.32 | 90 | 1019.0 |
| 20260902204626 | 74 | 323 | 0.0 | 1.0 | 0.00 | 0.32 | 0.32 | 91 | 1019.0 |
| 20260902204114 | 74 | 323 | 0.0 | 0.0 | 0.00 | 0.32 | 0.32 | 91 | 1019.1 |
| 20260902203624 | 74 | 323 | 0.0 | 0.0 | 0.00 | 0.32 | 0.32 | 90 | 1019.1 |
| 20260902203132 | 73 | 323 | 0.0 | 0.0 | 0.00 | 0.32 | 0.32 | 90 | 1019.0 |
| 20260902202621 | 74 | 323 | 0.0 | 0.0 | 0.00 | 0.32 | 0.32 | 89 | 1019.0 |
| 20260902202130 | 74 | 323 | 0.0 | 0.0 | 0.00 | 0.32 | 0.32 | 89 | 1019.2 |
| 20260902201619 | 75 | 323 | 0.0 | 0.0 | 0.00 | 0.32 | 0.32 | 88 | 1019.2 |
| 20260902201123 | 74 | 323 | 0.0 | 0.0 | 0.00 | 0.32 | 0.32 | 89 | 1019.3 |
| 20260902200632 | 74 | 323 | 0.0 | 0.0 | 0.00 | 0.32 | 0.32 | 89 | 1019.2 |
| 20260902200121 | 74 | 323 | 0.0 | 0.0 | 0.00 | 0.32 | 0.32 | 89 | 1018.9 |
| 20260902195630 | 74 | 323 | 0.0 | 0.0 | 0.00 | 0.32 | 0.32 | 89 | 1018.9 |
| 20260902195119 | 74 | 50 | 0.0 | 0.0 | 0.00 | 0.32 | 0.32 | 89 | 1018.8 |
| 20260902194628 | 73 | 103 | 0.0 | 0.0 | 0.00 | 0.32 | 0.32 | 87 | 1018.4 |
| 20260902194116 | 74 | 133 | 0.0 | 0.0 | 0.00 | 0.32 | 0.32 | 87 | 1018.5 |
| 20260902193626 | 74 | 351 | 0.0 | 0.0 | 0.00 | 0.32 | 0.32 | 89 | 1018.5 |
| 20260902193154 | 74 | 351 | 0.0 | 0.0 | 0.00 | 0.32 | 0.32 | 88 | 1018.3 |
| 20260902192642 | 74 | 351 | 0.0 | 0.0 | 0.00 | 0.32 | 0.32 | 87 | 1018.2 |
| 20260902192130 | 75 | 351 | 0.0 | 0.0 | 0.00 | 0.32 | 0.32 | 90 | 1018.2 |
| 20260902191620 | 74 | 351 | 0.0 | 0.0 | 0.00 | 0.32 | 0.32 | 88 | 1018.1 |
| 20260902191129 | 74 | 165 | 0.0 | 0.0 | 0.00 | 0.32 | 0.32 | 89 | 1018.3 |
| 20260902190618 | 74 | 5 | 0.0 | 0.0 | 0.00 | 0.32 | 0.32 | 88 | 1018.6 |
| 20260902190128 | 75 | 165 | 0.0 | 1.0 | 0.00 | 0.32 | 0.32 | 87 | 1018.8 |
| 20260902185615 | 76 | 165 | 0.0 | 1.0 | 0.00 | 0.32 | 0.32 | 86 | 1019.0 |
| 20260902185125 | 75 | 165 | 0.0 | 0.0 | 0.01 | 0.32 | 0.32 | 88 | 1019.3 |
| 20260902184613 | 74 | 165 | 0.0 | 0.0 | 0.01 | 0.32 | 0.32 | 90 | 1019.4 |
| 20260902184123 | 73 | 317 | 0.0 | 0.0 | 0.01 | 0.32 | 0.32 | 91 | 1019.5 |
| 20260902183628 | 73 | 165 | 0.0 | 0.0 | 0.02 | 0.32 | 0.32 | 91 | 1019.5 |
| 20260902183116 | 73 | 70 | 0.0 | 0.0 | 0.04 | 0.32 | 0.32 | 90 | 1019.2 |
| 20260902182625 | 73 | 71 | 0.0 | 0.0 | 0.07 | 0.32 | 0.32 | 90 | 1019.4 |
| 20260902182153 | 73 | 71 | 0.0 | 0.0 | 0.13 | 0.32 | 0.32 | 91 | 1019.7 |
| 20260902181622 | 73 | 72 | 0.0 | 0.0 | 0.19 | 0.32 | 0.32 | 92 | 1019.9 |
| 20260902181131 | 72 | 72 | 0.0 | 0.0 | 0.28 | 0.32 | 0.32 | 91 | 1019.9 |
| 20260902180619 | 72 | 72 | 0.0 | 2.0 | 0.30 | 0.32 | 0.32 | 90 | 1019.9 |
| 20260902180129 | 73 | 314 | 0.0 | 3.0 | 0.32 | 0.32 | 0.32 | 89 | 1020.3 |
| 20260902175618 | 73 | 236 | 0.0 | 4.0 | 0.32 | 0.32 | 0.32 | 89 | 1020.5 |
| 20260902175127 | 73 | 301 | 1.0 | 4.0 | 0.31 | 0.31 | 0.31 | 89 | 1020.9 |
| 20260902174616 | 73 | 165 | 1.0 | 4.0 | 0.31 | 0.31 | 0.31 | 88 | 1021.1 |
| 20260902174126 | 74 | 165 | 1.0 | 4.0 | 0.31 | 0.31 | 0.31 | 88 | 1021.1 |
| 20260902173614 | 74 | 314 | 2.0 | 5.0 | 0.30 | 0.30 | 0.30 | 88 | 1021.2 |
| 20260902173124 | 74 | 315 | 1.0 | 5.0 | 0.28 | 0.28 | 0.28 | 87 | 1021.5 |
| 20260902172633 | 74 | 323 | 0.0 | 5.0 | 0.24 | 0.24 | 0.24 | 88 | 1021.8 |
| 20260902172121 | 74 | 6 | 0.0 | 5.0 | 0.18 | 0.18 | 0.18 | 87 | 1022.3 |
| 20260902171630 | 75 | 195 | 0.0 | 6.0 | 0.12 | 0.12 | 0.12 | 86 | 1022.6 |
| 20260902171118 | 77 | 356 | 1.0 | 7.0 | 0.04 | 0.04 | 0.04 | 81 | 1023.1 |
| 20260902170626 | 79 | 39 | 2.0 | 7.0 | 0.01 | 0.01 | 0.01 | 81 | 1022.7 |
| 20260902170116 | 80 | 43 | 0.0 | 2.0 | 0.00 | 0.00 | 0.00 | 78 | 1022.2 |
| 20260902165639 | 81 | 36 | 0.0 | 2.0 | 0.00 | 0.00 | 0.00 | 76 | 1021.4 |
| 20260902165126 | 82 | 124 | 0.0 | 3.0 | 0.00 | 0.00 | 0.00 | 76 | 1021.0 |
| 20260902164615 | 82 | 130 | 0.0 | 3.0 | 0.00 | 0.00 | 0.00 | 77 | 1020.7 |
| 20260902164122 | 82 | 220 | 0.0 | 2.0 | 0.00 | 0.00 | 0.00 | 75 | 1020.6 |
| 20260902163632 | 82 | 243 | 1.0 | 3.0 | 0.00 | 0.00 | 0.00 | 76 | 1020.5 |
| 20260902163120 | 82 | 170 | 0.0 | 3.0 | 0.00 | 0.00 | 0.00 | 75 | 1020.4 |
| 20260902162628 | 83 | 179 | 0.0 | 4.0 | 0.00 | 0.00 | 0.00 | 75 | 1020.3 |
| 20260902162117 | 82 | 187 | 0.0 | 5.0 | 0.00 | 0.00 | 0.00 | 77 | 1020.3 |
| 20260902161627 | 82 | 184 | 1.0 | 5.0 | 0.00 | 0.00 | 0.00 | 78 | 1020.3 |
| 20260902161115 | 81 | 110 | 0.0 | 3.0 | 0.00 | 0.00 | 0.00 | 78 | 1020.3 |
| 20260902160623 | 81 | 99 | 0.0 | 5.0 | 0.00 | 0.00 | 0.00 | 79 | 1020.4 |
| 20260902160132 | 80 | 116 | 0.0 | 5.0 | 0.00 | 0.00 | 0.00 | 78 | 1020.1 |
| 20260902155622 | 81 | 95 | 0.0 | 3.0 | 0.00 | 0.00 | 0.00 | 77 | 1020.1 |
| 20260902155130 | 81 | 190 | 0.0 | 4.0 | 0.00 | 0.00 | 0.00 | 76 | 1020.1 |
| 20260902154619 | 82 | 72 | 0.0 | 5.0 | 0.00 | 0.00 | 0.00 | 76 | 1020.1 |
| 20260902154126 | 83 | 297 | 2.0 | 5.0 | 0.00 | 0.00 | 0.00 | 75 | 1020.0 |
| 20260902153635 | 83 | 124 | 1.0 | 5.0 | 0.00 | 0.00 | 0.00 | 75 | 1019.9 |
| 20260902153122 | 82 | 110 | 0.0 | 10.0 | 0.00 | 0.00 | 0.00 | 78 | 1019.9 |
| 20260902152631 | 83 | 193 | 0.0 | 10.0 | 0.00 | 0.00 | 0.00 | 75 | 1019.8 |
| 20260902152136 | 82 | 151 | 0.0 | 6.0 | 0.00 | 0.00 | 0.00 | 76 | 1019.7 |
| 20260902151624 | 82 | 351 | 1.0 | 6.0 | 0.00 | 0.00 | 0.00 | 77 | 1019.7 |
| 20260902151133 | 82 | 109 | 0.0 | 6.0 | 0.00 | 0.00 | 0.00 | 75 | 1019.6 |
| 20260902150621 | 82 | 263 | 1.0 | 5.0 | 0.00 | 0.00 | 0.00 | 76 | 1019.8 |
| 20260902150130 | 83 | 176 | 3.0 | 6.0 | 0.00 | 0.00 | 0.00 | 76 | 1019.8 |
| 20260902145618 | 81 | 199 | 1.0 | 4.0 | 0.00 | 0.00 | 0.00 | 79 | 1019.7 |
| 20260902145127 | 82 | 103 | 0.0 | 7.0 | 0.00 | 0.00 | 0.00 | 78 | 1019.9 |
| 20260902144616 | 82 | 85 | 2.0 | 7.0 | 0.00 | 0.00 | 0.00 | 77 | 1019.9 |
| 20260902144126 | 81 | 214 | 1.0 | 5.0 | 0.00 | 0.00 | 0.00 | 80 | 1019.8 |
| 20260902143613 | 81 | 50 | 0.0 | 3.0 | 0.00 | 0.00 | 0.00 | 79 | 1019.8 |
| 20260902143123 | 81 | 132 | 1.0 | 3.0 | 0.00 | 0.00 | 0.00 | 80 | 1020.0 |
| 20260902142650 | 81 | 122 | 0.0 | 3.0 | 0.00 | 0.00 | 0.00 | 78 | 1019.9 |
| 20260902142117 | 81 | 41 | 0.0 | 3.0 | 0.00 | 0.00 | 0.00 | 78 | 1019.9 |
| 20260902141626 | 82 | 53 | 1.0 | 6.0 | 0.00 | 0.00 | 0.00 | 76 | 1020.0 |
| 20260902141154 | 82 | 270 | 1.0 | 6.0 | 0.00 | 0.00 | 0.00 | 77 | 1020.1 |
| 20260902140622 | 81 | 282 | 0.0 | 3.0 | 0.00 | 0.00 | 0.00 | 78 | 1020.1 |
| 20260902140132 | 81 | 47 | 1.0 | 3.0 | 0.00 | 0.00 | 0.00 | 78 | 1020.0 |
| 20260902135620 | 80 | 355 | 1.0 | 3.0 | 0.00 | 0.00 | 0.00 | 78 | 1020.0 |
| 20260902135124 | 81 | 128 | 1.0 | 5.0 | 0.00 | 0.00 | 0.00 | 77 | 1019.9 |
| 20260902134633 | 81 | 294 | 1.0 | 5.0 | 0.00 | 0.00 | 0.00 | 75 | 1019.7 |
| 20260902134122 | 81 | 192 | 2.0 | 5.0 | 0.00 | 0.00 | 0.00 | 78 | 1019.5 |
| 20260902133630 | 81 | 75 | 0.0 | 5.0 | 0.00 | 0.00 | 0.00 | 76 | 1019.5 |
| 20260902133119 | 81 | 192 | 2.0 | 5.0 | 0.00 | 0.00 | 0.00 | 77 | 1019.6 |
| 20260902132628 | 81 | 124 | 0.0 | 3.0 | 0.00 | 0.00 | 0.00 | 77 | 1019.6 |
| 20260902132116 | 80 | 219 | 0.0 | 3.0 | 0.00 | 0.00 | 0.00 | 82 | 1019.5 |
| 20260902131625 | 79 | 103 | 0.0 | 0.0 | 0.00 | 0.00 | 0.00 | 80 | 1019.4 |
| 20260902131130 | 79 | 97 | 0.0 | 0.0 | 0.00 | 0.00 | 0.00 | 80 | 1019.5 |
| 20260902130620 | 80 | 97 | 0.0 | 1.0 | 0.00 | 0.00 | 0.00 | 79 | 1019.4 |
| 20260902130149 | 80 | 114 | 0.0 | 4.0 | 0.00 | 0.00 | 0.00 | 80 | 1019.4 |
| 20260902125615 | 79 | 243 | 0.0 | 4.0 | 0.00 | 0.00 | 0.00 | 80 | 1019.2 |
| 20260902125125 | 79 | 165 | 0.0 | 2.0 | 0.00 | 0.00 | 0.00 | 81 | 1019.3 |
| 20260902124613 | 79 | 121 | 0.0 | 2.0 | 0.00 | 0.00 | 0.00 | 82 | 1019.2 |
| 20260902124121 | 78 | 284 | 0.0 | 2.0 | 0.00 | 0.00 | 0.00 | 81 | 1019.2 |
| 20260902123630 | 78 | 174 | 0.0 | 2.0 | 0.00 | 0.00 | 0.00 | 82 | 1019.0 |
| 20260902123119 | 78 | 109 | 0.0 | 2.0 | 0.00 | 0.00 | 0.00 | 84 | 1019.1 |
| 20260902122628 | 77 | 116 | 0.0 | 1.0 | 0.00 | 0.00 | 0.00 | 84 | 1019.0 |
| 20260902122117 | 76 | 225 | 0.0 | 1.0 | 0.00 | 0.00 | 0.00 | 85 | 1019.0 |
| 20260902121624 | 76 | 170 | 0.0 | 1.0 | 0.00 | 0.00 | 0.00 | 85 | 1018.9 |
| 20260902121149 | 76 | 177 | 0.0 | 0.0 | 0.00 | 0.00 | 0.00 | 86 | 1019.0 |
| 20260902120617 | 75 | 17 | 0.0 | 0.0 | 0.00 | 0.00 | 0.00 | 86 | 1019.0 |
| 20260902120145 | 75 | 17 | 0.0 | 0.0 | 0.00 | 0.00 | 0.00 | 87 | 1019.0 |
| 20260902115652 | 74 | 17 | 0.0 | 0.0 | 0.00 | 0.00 | 0.00 | 88 | 1019.0 |
| 20260902115120 | 74 | 5 | 0.0 | 0.0 | 0.00 | 0.00 | 0.00 | 88 | 1019.0 |
| 20260902114649 | 74 | 5 | 0.0 | 0.0 | 0.00 | 0.00 | 0.00 | 88 | 1019.0 |
| 20260902114116 | 74 | 5 | 0.0 | 0.0 | 0.00 | 0.00 | 0.00 | 89 | 1019.0 |
| 20260902113625 | 73 | 5 | 0.0 | 0.0 | 0.00 | 0.00 | 0.00 | 89 | 1018.8 |
| 20260902113154 | 73 | 5 | 0.0 | 0.0 | 0.00 | 0.00 | 0.00 | 88 | 1018.8 |
| 20260902112622 | 74 | 5 | 0.0 | 0.0 | 0.00 | 0.00 | 0.00 | 88 | 1018.9 |
| 20260902112130 | 73 | 5 | 0.0 | 0.0 | 0.00 | 0.00 | 0.00 | 88 | 1018.9 |
| 20260902111619 | 73 | 5 | 0.0 | 0.0 | 0.00 | 0.00 | 0.00 | 89 | 1018.9 |
| 20260902111129 | 73 | 5 | 0.0 | 0.0 | 0.00 | 0.00 | 0.00 | 89 | 1019.0 |
| 20260902110618 | 73 | 5 | 0.0 | 0.0 | 0.00 | 0.00 | 0.00 | 88 | 1018.9 |
| 20260902110144 | 73 | 5 | 0.0 | 0.0 | 0.00 | 0.00 | 0.00 | 88 | 1018.9 |
| 20260902105632 | 73 | 5 | 0.0 | 0.0 | 0.00 | 0.00 | 0.00 | 89 | 1018.8 |
| 20260902105122 | 73 | 5 | 0.0 | 0.0 | 0.00 | 0.00 | 0.00 | 88 | 1018.8 |
| 20260902104630 | 73 | 5 | 0.0 | 0.0 | 0.00 | 0.00 | 0.00 | 89 | 1018.8 |
| 20260902104121 | 73 | 5 | 0.0 | 0.0 | 0.00 | 0.00 | 0.00 | 89 | 1018.9 |
| 20260902103630 | 72 | 5 | 0.0 | 0.0 | 0.00 | 0.00 | 0.00 | 89 | 1018.9 |
| 20260902103118 | 72 | 5 | 0.0 | 0.0 | 0.00 | 0.00 | 0.00 | 89 | 1018.8 |
| 20260902102625 | 72 | 5 | 0.0 | 0.0 | 0.00 | 0.00 | 0.00 | 90 | 1018.8 |
| 20260902102113 | 72 | 5 | 0.0 | 0.0 | 0.00 | 0.00 | 0.00 | 91 | 1018.8 |
| 20260902101623 | 72 | 5 | 0.0 | 0.0 | 0.00 | 0.00 | 0.00 | 91 | 1018.9 |
| 20260902101152 | 72 | 5 | 0.0 | 0.0 | 0.00 | 0.00 | 0.00 | 90 | 1018.9 |
| 20260902100620 | 72 | 5 | 0.0 | 0.0 | 0.00 | 0.00 | 0.00 | 90 | 1018.8 |
| 20260902100130 | 72 | 5 | 0.0 | 0.0 | 0.00 | 0.00 | 0.00 | 89 | 1018.7 |
| 20260902095618 | 72 | 5 | 0.0 | 0.0 | 0.00 | 0.00 | 0.00 | 89 | 1018.7 |
| 20260902095128 | 72 | 5 | 0.0 | 0.0 | 0.00 | 0.00 | 0.00 | 89 | 1018.6 |
| 20260902094615 | 73 | 5 | 0.0 | 0.0 | 0.00 | 0.00 | 0.00 | 87 | 1018.6 |
| 20260902094124 | 73 | 5 | 0.0 | 0.0 | 0.00 | 0.00 | 0.00 | 88 | 1018.6 |
| 20260902093629 | 73 | 5 | 0.0 | 0.0 | 0.00 | 0.00 | 0.00 | 88 | 1018.5 |
| 20260902093119 | 73 | 5 | 0.0 | 0.0 | 0.00 | 0.00 | 0.00 | 88 | 1018.6 |
| 20260902092627 | 72 | 5 | 0.0 | 0.0 | 0.00 | 0.00 | 0.00 | 89 | 1018.6 |
| 20260902092115 | 72 | 39 | 0.0 | 0.0 | 0.00 | 0.00 | 0.00 | 89 | 1018.6 |
| 20260902091625 | 72 | 39 | 0.0 | 0.0 | 0.00 | 0.00 | 0.00 | 89 | 1018.7 |
| 20260902091114 | 73 | 39 | 0.0 | 0.0 | 0.00 | 0.00 | 0.00 | 88 | 1018.7 |
| 20260902090624 | 73 | 39 | 0.0 | 0.0 | 0.00 | 0.00 | 0.00 | 89 | 1018.6 |
| 20260902090132 | 72 | 39 | 0.0 | 0.0 | 0.00 | 0.00 | 0.00 | 89 | 1018.6 |
| 20260902085621 | 72 | 39 | 0.0 | 0.0 | 0.00 | 0.00 | 0.00 | 88 | 1018.7 |
| 20260902085130 | 73 | 39 | 0.0 | 0.0 | 0.00 | 0.00 | 0.00 | 88 | 1018.6 |
| 20260902084618 | 73 | 39 | 0.0 | 0.0 | 0.00 | 0.00 | 0.00 | 87 | 1018.6 |
| 20260902084127 | 73 | 39 | 0.0 | 0.0 | 0.00 | 0.00 | 0.00 | 88 | 1018.6 |
| 20260902083617 | 73 | 39 | 0.0 | 0.0 | 0.00 | 0.00 | 0.00 | 88 | 1018.5 |
| 20260902083125 | 73 | 39 | 0.0 | 0.0 | 0.00 | 0.00 | 0.00 | 89 | 1018.4 |
| 20260902082615 | 73 | 39 | 0.0 | 0.0 | 0.00 | 0.00 | 0.00 | 89 | 1018.4 |
| 20260902082123 | 73 | 39 | 0.0 | 0.0 | 0.00 | 0.00 | 0.00 | 89 | 1018.4 |
| 20260902081633 | 73 | 39 | 0.0 | 0.0 | 0.00 | 0.00 | 0.00 | 88 | 1018.5 |
| 20260902081121 | 73 | 39 | 0.0 | 0.0 | 0.00 | 0.00 | 0.00 | 88 | 1018.6 |
| 20260902080650 | 73 | 39 | 0.0 | 0.0 | 0.00 | 0.00 | 0.00 | 88 | 1018.6 |
| 20260902080119 | 73 | 39 | 0.0 | 0.0 | 0.00 | 0.00 | 0.00 | 88 | 1018.5 |
| 20260902075628 | 73 | 39 | 0.0 | 0.0 | 0.00 | 0.00 | 0.00 | 88 | 1018.5 |
| 20260902075118 | 73 | 39 | 0.0 | 0.0 | 0.00 | 0.00 | 0.00 | 88 | 1018.5 |
| 20260902074624 | 74 | 39 | 0.0 | 0.0 | 0.00 | 0.00 | 0.00 | 87 | 1018.5 |
| 20260902074133 | 74 | 39 | 0.0 | 0.0 | 0.00 | 0.00 | 0.00 | 86 | 1018.6 |
| 20260902073643 | 74 | 39 | 0.0 | 0.0 | 0.00 | 0.00 | 0.00 | 86 | 1018.6 |
| 20260902073130 | 74 | 39 | 0.0 | 0.0 | 0.00 | 0.00 | 0.00 | 86 | 1018.4 |
| 20260902072621 | 74 | 39 | 0.0 | 0.0 | 0.00 | 0.00 | 0.00 | 86 | 1018.4 |
| 20260902072129 | 74 | 39 | 0.0 | 0.0 | 0.00 | 0.00 | 0.00 | 85 | 1018.3 |
| 20260902071619 | 74 | 39 | 0.0 | 0.0 | 0.00 | 0.00 | 0.00 | 85 | 1018.1 |
| 20260902071146 | 74 | 39 | 0.0 | 0.0 | 0.00 | 0.00 | 0.00 | 85 | 1018.1 |
| 20260902070615 | 74 | 39 | 0.0 | 0.0 | 0.00 | 0.00 | 0.00 | 84 | 1018.1 |
| 20260902070124 | 75 | 39 | 0.0 | 0.0 | 0.00 | 0.00 | 0.00 | 84 | 1018.0 |
| 20260902065613 | 75 | 39 | 0.0 | 0.0 | 0.00 | 0.00 | 0.00 | 82 | 1018.0 |
| 20260902065122 | 76 | 39 | 0.0 | 0.0 | 0.00 | 0.00 | 0.00 | 81 | 1018.1 |
| 20260902064632 | 76 | 39 | 0.0 | 0.0 | 0.00 | 0.00 | 0.00 | 82 | 1018.0 |
| 20260902064120 | 75 | 39 | 0.0 | 0.0 | 0.00 | 0.00 | 0.00 | 83 | 1017.9 |
| 20260902063630 | 75 | 39 | 0.0 | 0.0 | 0.00 | 0.00 | 0.00 | 83 | 1017.9 |
| 20260902063119 | 75 | 39 | 0.0 | 0.0 | 0.00 | 0.00 | 0.00 | 82 | 1017.7 |
| 20260902062629 | 76 | 39 | 0.0 | 0.0 | 0.00 | 0.00 | 0.00 | 82 | 1017.7 |
| 20260902062117 | 76 | 70 | 0.0 | 0.0 | 0.00 | 0.00 | 0.00 | 80 | 1017.6 |
| 20260902061627 | 77 | 70 | 0.0 | 0.0 | 0.00 | 0.00 | 0.00 | 80 | 1017.5 |
| 20260902061114 | 77 | 70 | 0.0 | 0.0 | 0.00 | 0.00 | 0.00 | 79 | 1017.4 |
| 20260902060620 | 77 | 70 | 0.0 | 0.0 | 0.00 | 0.00 | 0.00 | 79 | 1017.2 |
| 20260902060149 | 77 | 70 | 0.0 | 0.0 | 0.00 | 0.00 | 0.00 | 79 | 1017.4 |
| 20260902055618 | 77 | 70 | 0.0 | 0.0 | 0.00 | 0.00 | 0.00 | 79 | 1017.5 |
| 20260902055126 | 77 | 70 | 0.0 | 0.0 | 0.00 | 0.00 | 0.00 | 79 | 1017.6 |
| 20260902054615 | 77 | 70 | 0.0 | 0.0 | 0.00 | 0.00 | 0.00 | 79 | 1017.6 |
| 20260902054144 | 77 | 70 | 0.0 | 0.0 | 0.00 | 0.00 | 0.00 | 78 | 1017.7 |
| 20260902053633 | 78 | 70 | 0.0 | 0.0 | 0.00 | 0.00 | 0.00 | 77 | 1017.6 |
| 20260902053121 | 78 | 70 | 0.0 | 0.0 | 0.00 | 0.00 | 0.00 | 78 | 1017.6 |
| 20260902052650 | 78 | 70 | 0.0 | 0.0 | 0.00 | 0.00 | 0.00 | 78 | 1017.8 |
| 20260902052119 | 78 | 70 | 0.0 | 0.0 | 0.00 | 0.00 | 0.00 | 77 | 1017.9 |
| 20260902051627 | 78 | 70 | 0.0 | 0.0 | 0.00 | 0.00 | 0.00 | 77 | 1018.1 |
| 20260902051116 | 78 | 71 | 0.0 | 1.0 | 0.00 | 0.00 | 0.00 | 76 | 1018.1 |
| 20260902050645 | 79 | 52 | 0.0 | 1.0 | 0.00 | 0.00 | 0.00 | 76 | 1018.0 |
| 20260902050149 | 79 | 77 | 0.0 | 0.0 | 0.00 | 0.00 | 0.00 | 76 | 1018.1 |
| 20260902045618 | 79 | 50 | 0.0 | 0.0 | 0.00 | 0.00 | 0.00 | 77 | 1018.0 |
| 20260902045126 | 79 | 47 | 0.0 | 0.0 | 0.00 | 0.00 | 0.00 | 78 | 1018.1 |
| 20260902044614 | 79 | 47 | 0.0 | 0.0 | 0.00 | 0.00 | 0.00 | 79 | 1018.2 |
| 20260902044123 | 79 | 45 | 0.0 | 0.0 | 0.00 | 0.00 | 0.00 | 79 | 1018.1 |
| 20260902043633 | 79 | 45 | 0.0 | 0.0 | 0.00 | 0.00 | 0.00 | 79 | 1017.8 |
| 20260902043121 | 79 | 45 | 0.0 | 0.0 | 0.00 | 0.00 | 0.00 | 79 | 1017.8 |
| 20260902042631 | 79 | 45 | 0.0 | 0.0 | 0.00 | 0.00 | 0.00 | 79 | 1017.8 |
| 20260902042119 | 80 | 45 | 0.0 | 0.0 | 0.00 | 0.00 | 0.00 | 78 | 1017.7 |
| 20260902041627 | 79 | 45 | 0.0 | 0.0 | 0.00 | 0.00 | 0.00 | 79 | 1017.7 |
| 20260902041115 | 79 | 45 | 0.0 | 0.0 | 0.00 | 0.00 | 0.00 | 78 | 1017.6 |
| 20260902040626 | 79 | 45 | 0.0 | 0.0 | 0.00 | 0.00 | 0.00 | 79 | 1017.7 |
| 20260902040114 | 79 | 90 | 0.0 | 0.0 | 0.00 | 0.00 | 0.00 | 79 | 1017.6 |
| 20260902035643 | 79 | 90 | 0.0 | 0.0 | 0.00 | 0.00 | 0.00 | 79 | 1017.4 |
| 20260902035130 | 79 | 90 | 0.0 | 2.0 | 0.00 | 0.00 | 0.00 | 79 | 1017.3 |
| 20260902034619 | 79 | 90 | 0.0 | 2.0 | 0.00 | 0.00 | 0.00 | 80 | 1017.1 |
| 20260902034128 | 79 | 270 | 0.0 | 0.0 | 0.00 | 0.00 | 0.00 | 80 | 1016.8 |
| 20260902033616 | 79 | 69 | 0.0 | 0.0 | 0.00 | 0.00 | 0.00 | 79 | 1016.9 |
| 20260902033125 | 79 | 322 | 0.0 | 0.0 | 0.00 | 0.00 | 0.00 | 79 | 1016.5 |
| 20260902032613 | 80 | 322 | 0.0 | 0.0 | 0.00 | 0.00 | 0.00 | 79 | 1016.6 |
| 20260902032123 | 80 | 322 | 0.0 | 0.0 | 0.00 | 0.00 | 0.00 | 77 | 1016.6 |
| 20260902031628 | 81 | 322 | 0.0 | 0.0 | 0.00 | 0.00 | 0.00 | 77 | 1016.3 |
| 20260902031118 | 80 | 322 | 0.0 | 0.0 | 0.00 | 0.00 | 0.00 | 77 | 1016.4 |
| 20260902030626 | 80 | 322 | 0.0 | 0.0 | 0.00 | 0.00 | 0.00 | 77 | 1016.3 |
| 20260902030116 | 81 | 322 | 0.0 | 0.0 | 0.00 | 0.00 | 0.00 | 76 | 1016.3 |
| 20260902025626 | 81 | 322 | 0.0 | 0.0 | 0.00 | 0.00 | 0.00 | 75 | 1016.2 |
| 20260902025115 | 82 | 322 | 0.0 | 0.0 | 0.00 | 0.00 | 0.00 | 74 | 1016.0 |
| 20260902024644 | 82 | 322 | 0.0 | 0.0 | 0.00 | 0.00 | 0.00 | 73 | 1015.9 |
| 20260902024132 | 82 | 309 | 0.0 | 0.0 | 0.00 | 0.00 | 0.00 | 73 | 1015.8 |
| 20260902023619 | 82 | 309 | 0.0 | 2.0 | 0.00 | 0.00 | 0.00 | 72 | 1015.7 |
| 20260902023128 | 82 | 322 | 0.0 | 4.0 | 0.00 | 0.00 | 0.00 | 72 | 1015.6 |
| 20260902022614 | 83 | 315 | 1.0 | 4.0 | 0.00 | 0.00 | 0.00 | 72 | 1015.6 |
| 20260902022124 | 83 | 284 | 0.0 | 0.0 | 0.00 | 0.00 | 0.00 | 72 | 1015.8 |
| 20260902021633 | 83 | 293 | 0.0 | 2.0 | 0.00 | 0.00 | 0.00 | 71 | 1015.9 |
| 20260902021123 | 83 | 280 | 0.0 | 2.0 | 0.00 | 0.00 | 0.00 | 70 | 1016.0 |
| 20260902020632 | 83 | 315 | 0.0 | 0.0 | 0.00 | 0.00 | 0.00 | 70 | 1016.0 |
| 20260902020142 | 84 | 312 | 0.0 | 1.0 | 0.00 | 0.00 | 0.00 | 70 | 1016.0 |
| 20260902015631 | 84 | 318 | 0.0 | 1.0 | 0.00 | 0.00 | 0.00 | 70 | 1015.9 |
| 20260902015141 | 84 | 333 | 0.0 | 1.0 | 0.00 | 0.00 | 0.00 | 69 | 1015.9 |
| 20260902014624 | 84 | 334 | 0.0 | 3.0 | 0.00 | 0.00 | 0.00 | 69 | 1015.8 |
| 20260902014114 | 84 | 320 | 0.0 | 3.0 | 0.00 | 0.00 | 0.00 | 69 | 1015.8 |
| 20260902013623 | 85 | 338 | 0.0 | 3.0 | 0.00 | 0.00 | 0.00 | 68 | 1015.8 |
| 20260902013131 | 85 | 319 | 0.0 | 9.0 | 0.00 | 0.00 | 0.00 | 68 | 1015.7 |
| 20260902012621 | 85 | 305 | 2.0 | 9.0 | 0.00 | 0.00 | 0.00 | 69 | 1015.6 |
| 20260902012129 | 85 | 286 | 0.0 | 4.0 | 0.00 | 0.00 | 0.00 | 69 | 1015.5 |
| 20260902011619 | 85 | 334 | 1.0 | 7.0 | 0.00 | 0.00 | 0.00 | 69 | 1015.5 |
| 20260902011128 | 85 | 312 | 2.0 | 4.0 | 0.00 | 0.00 | 0.00 | 70 | 1015.5 |
| 20260902010618 | 85 | 328 | 1.0 | 3.0 | 0.00 | 0.00 | 0.00 | 70 | 1015.5 |
| 20260902010128 | 85 | 294 | 1.0 | 2.0 | 0.00 | 0.00 | 0.00 | 70 | 1015.4 |
| 20260902005617 | 85 | 277 | 0.0 | 3.0 | 0.00 | 0.00 | 0.00 | 69 | 1015.4 |
| 20260902005125 | 85 | 311 | 0.0 | 3.0 | 0.00 | 0.00 | 0.00 | 69 | 1015.4 |
| 20260902004634 | 85 | 295 | 1.0 | 4.0 | 0.00 | 0.00 | 0.00 | 69 | 1015.4 |
| 20260902004123 | 85 | 311 | 0.0 | 4.0 | 0.00 | 0.00 | 0.00 | 70 | 1015.3 |
| 20260902003632 | 86 | 306 | 1.0 | 4.0 | 0.00 | 0.00 | 0.00 | 70 | 1015.1 |
| 20260902003142 | 86 | 290 | 1.0 | 4.0 | 0.00 | 0.00 | 0.00 | 69 | 1015.0 |
| 20260902002650 | 86 | 291 | 1.0 | 4.0 | 0.00 | 0.00 | 0.00 | 69 | 1014.9 |
| 20260902002117 | 86 | 276 | 1.0 | 7.0 | 0.00 | 0.00 | 0.00 | 68 | 1014.8 |
| 20260902001622 | 87 | 308 | 2.0 | 7.0 | 0.00 | 0.00 | 0.00 | 68 | 1014.8 |